Time,TemperatureF,DewpointF,PressureIn,WindDirection,WindDirectionDegrees,WindSpeedMPH,WindSpeedGustMPH,Humidity,HourlyPrecipIn,Conditions,Clouds,dailyrainin,SoftwareType,DateUTC
2013-10-08 00:05:00,46.1,44.0,30.08,South,177,0.0,2.0,92,0.00,,,0.00,weatherlink.com 1.10,2013-10-08 04:05:00,
2013-10-08 00:20:00,46.5,44.0,30.08,SW,221,1.0,3.0,92,0.00,,,0.00,weatherlink.com 1.10,2013-10-08 04:20:00,
2013-10-08 00:35:00,46.5,44.0,30.08,WSW,258,1.0,3.0,91,0.00,,,0.00,weatherlink.com 1.10,2013-10-08 04:35:00,
2013-10-08 00:50:00,46.1,44.0,30.09,SW,222,1.0,3.0,92,0.00,,,0.00,weatherlink.com 1.10,2013-10-08 04:50:00,
2013-10-08 01:05:00,46.1,44.0,30.09,South,190,2.0,3.0,92,0.00,,,0.00,weatherlink.com 1.10,2013-10-08 05:05:00,
2013-10-08 01:20:00,46.2,44.0,30.10,SW,226,1.0,4.0,92,0.00,,,0.00,weatherlink.com 1.10,2013-10-08 05:20:00,
2013-10-08 01:35:00,46.2,44.0,30.10,South,179,2.0,3.0,92,0.00,,,0.00,weatherlink.com 1.10,2013-10-08 05:35:00,
2013-10-08 01:50:00,46.1,44.0,30.10,SSE,160,0.0,4.0,92,0.00,,,0.00,weatherlink.com 1.10,2013-10-08 05:50:00,
2013-10-08 02:05:00,45.8,44.0,30.11,WSW,240,0.0,3.0,93,0.00,,,0.00,weatherlink.com 1.10,2013-10-08 06:05:00,
2013-10-08 02:20:00,45.7,44.0,30.11,SW,233,0.0,2.0,93,0.00,,,0.00,weatherlink.com 1.10,2013-10-08 06:20:00,
2013-10-08 02:35:00,45.4,44.0,30.11,SE,143,0.0,2.0,94,0.00,,,0.00,weatherlink.com 1.10,2013-10-08 06:35:00,
2013-10-08 02:50:00,45.3,44.0,30.12,SSW,200,0.0,2.0,94,0.00,,,0.00,weatherlink.com 1.10,2013-10-08 06:50:00,
2013-10-08 03:05:00,45.0,44.0,30.12,SW,231,0.0,3.0,95,0.00,,,0.00,weatherlink.com 1.10,2013-10-08 07:05:00,
2013-10-08 03:20:00,44.8,43.0,30.12,SSW,212,0.0,2.0,94,0.00,,,0.00,weatherlink.com 1.10,2013-10-08 07:20:00,
2013-10-08 03:35:00,44.6,43.0,30.13,WSW,255,0.0,2.0,95,0.00,,,0.00,weatherlink.com 1.10,2013-10-08 07:35:00,
2013-10-08 03:50:00,43.9,42.0,30.14,North,1,0.0,3.0,94,0.00,,,0.00,weatherlink.com 1.10,2013-10-08 07:50:00,
2013-10-08 04:05:00,43.5,42.0,30.14,NNW,342,0.0,0.0,95,0.00,,,0.00,weatherlink.com 1.10,2013-10-08 08:05:00,
2013-10-08 04:20:00,42.7,41.0,30.15,NNW,341,0.0,0.0,95,0.00,,,0.00,weatherlink.com 1.10,2013-10-08 08:20:00,
2013-10-08 04:36:00,42.2,41.0,30.16,NNW,341,0.0,0.0,96,0.00,,,0.00,weatherlink.com 1.10,2013-10-08 08:36:00,
2013-10-08 04:51:00,41.6,41.0,30.16,NNW,342,0.0,0.0,96,0.00,,,0.00,weatherlink.com 1.10,2013-10-08 08:51:00,
2013-10-08 05:06:00,40.7,40.0,30.16,NNW,341,0.0,0.0,96,0.00,,,0.00,weatherlink.com 1.10,2013-10-08 09:06:00,
2013-10-08 05:21:00,40.2,39.0,30.17,NNW,341,0.0,0.0,97,0.00,,,0.00,weatherlink.com 1.10,2013-10-08 09:21:00,
2013-10-08 05:36:00,39.9,39.0,30.17,NNW,341,0.0,0.0,97,0.00,,,0.00,weatherlink.com 1.10,2013-10-08 09:36:00,
2013-10-08 05:51:00,39.5,39.0,30.18,NNW,341,0.0,0.0,97,0.00,,,0.00,weatherlink.com 1.10,2013-10-08 09:51:00,
2013-10-08 06:06:00,39.1,38.0,30.19,NNW,342,0.0,0.0,97,0.00,,,0.00,weatherlink.com 1.10,2013-10-08 10:06:00,
2013-10-08 06:21:00,39.0,38.0,30.19,NNW,342,0.0,0.0,97,0.00,,,0.00,weatherlink.com 1.10,2013-10-08 10:21:00,
2013-10-08 06:36:00,38.7,38.0,30.20,NNW,343,0.0,0.0,97,0.00,,,0.00,weatherlink.com 1.10,2013-10-08 10:36:00,
2013-10-08 06:51:00,39.1,39.0,30.20,NNW,342,0.0,0.0,98,0.00,,,0.00,weatherlink.com 1.10,2013-10-08 10:51:00,
2013-10-08 07:21:00,38.2,38.0,30.21,NW,319,0.0,0.0,97,0.00,,,0.00,weatherlink.com 1.10,2013-10-08 11:21:00,
2013-10-08 07:36:00,38.2,38.0,30.21,NW,319,0.0,0.0,98,0.00,,,0.00,weatherlink.com 1.10,2013-10-08 11:36:00,
2013-10-08 07:51:00,38.2,38.0,30.22,NW,319,0.0,0.0,98,0.00,,,0.00,weatherlink.com 1.10,2013-10-08 11:51:00,
2013-10-08 08:06:00,38.8,38.0,30.23,SW,231,0.0,1.0,98,0.00,,,0.00,weatherlink.com 1.10,2013-10-08 12:06:00,
2013-10-08 08:21:00,39.0,39.0,30.23,SW,231,0.0,0.0,98,0.00,,,0.00,weatherlink.com 1.10,2013-10-08 12:21:00,
2013-10-08 08:36:00,40.5,40.0,30.24,SW,231,0.0,0.0,99,0.00,,,0.00,weatherlink.com 1.10,2013-10-08 12:36:00,
2013-10-08 08:51:00,44.1,44.0,30.24,SE,138,0.0,2.0,99,0.00,,,0.00,weatherlink.com 1.10,2013-10-08 12:51:00,
2013-10-08 09:06:00,46.1,46.0,30.25,SE,138,0.0,3.0,99,0.00,,,0.00,weatherlink.com 1.10,2013-10-08 13:06:00,
2013-10-08 09:21:00,48.3,48.0,30.25,SSE,166,1.0,1.0,99,0.00,,,0.00,weatherlink.com 1.10,2013-10-08 13:21:00,
2013-10-08 09:36:00,50.2,49.0,30.25,SE,143,0.0,4.0,95,0.00,,,0.00,weatherlink.com 1.10,2013-10-08 13:36:00,
2013-10-08 09:51:00,51.8,49.0,30.26,SSE,153,4.0,5.0,90,0.00,,,0.00,weatherlink.com 1.10,2013-10-08 13:51:00,
2013-10-08 10:06:00,53.4,49.0,30.26,SSE,166,2.0,5.0,86,0.00,,,0.00,weatherlink.com 1.10,2013-10-08 14:06:00,
2013-10-08 10:22:00,54.4,49.0,30.26,West,269,2.0,5.0,81,0.00,,,0.00,weatherlink.com 1.10,2013-10-08 14:22:00,
2013-10-08 10:37:00,55.8,49.0,30.26,SSW,194,3.0,6.0,79,0.00,,,0.00,weatherlink.com 1.10,2013-10-08 14:37:00,
2013-10-08 10:52:00,57.7,49.0,30.26,WSW,255,0.0,5.0,74,0.00,,,0.00,weatherlink.com 1.10,2013-10-08 14:52:00,
2013-10-08 11:07:00,59.1,49.0,30.26,WSW,253,1.0,5.0,70,0.00,,,0.00,weatherlink.com 1.10,2013-10-08 15:07:00,
2013-10-08 11:22:00,60.4,48.0,30.26,WSW,255,5.0,8.0,65,0.00,,,0.00,weatherlink.com 1.10,2013-10-08 15:22:00,
2013-10-08 11:37:00,61.3,49.0,30.25,SE,134,1.0,8.0,64,0.00,,,0.00,weatherlink.com 1.10,2013-10-08 15:37:00,
2013-10-08 11:52:00,62.5,48.0,30.25,WSW,243,4.0,8.0,59,0.00,,,0.00,weatherlink.com 1.10,2013-10-08 15:52:00,
2013-10-08 12:07:00,63.1,47.0,30.25,SSE,156,3.0,11.0,57,0.00,,,0.00,weatherlink.com 1.10,2013-10-08 16:07:00,
2013-10-08 12:22:00,63.9,48.0,30.25,SE,145,3.0,10.0,56,0.00,,,0.00,weatherlink.com 1.10,2013-10-08 16:22:00,
2013-10-08 12:37:00,64.5,48.0,30.25,SSE,167,2.0,10.0,55,0.00,,,0.00,weatherlink.com 1.10,2013-10-08 16:37:00,
2013-10-08 12:52:00,65.5,48.0,30.25,WSW,246,6.0,9.0,53,0.00,,,0.00,weatherlink.com 1.10,2013-10-08 16:52:00,
2013-10-08 13:07:00,65.8,48.0,30.25,SE,132,5.0,11.0,52,0.00,,,0.00,weatherlink.com 1.10,2013-10-08 17:07:00,
2013-10-08 13:22:00,65.5,46.0,30.24,WSW,243,3.0,10.0,50,0.00,,,0.00,weatherlink.com 1.10,2013-10-08 17:22:00,
2013-10-08 13:37:00,66.3,48.0,30.24,South,177,2.0,9.0,52,0.00,,,0.00,weatherlink.com 1.10,2013-10-08 17:37:00,
2013-10-08 13:52:00,66.6,47.0,30.23,South,174,7.0,11.0,49,0.00,,,0.00,weatherlink.com 1.10,2013-10-08 17:52:00,
2013-10-08 14:22:00,67.1,47.0,30.22,SE,142,2.0,11.0,49,0.00,,,0.00,weatherlink.com 1.10,2013-10-08 18:22:00,
2013-10-08 14:37:00,67.1,48.0,30.22,SW,217,8.0,9.0,51,0.00,,,0.00,weatherlink.com 1.10,2013-10-08 18:37:00,
2013-10-08 14:52:00,68.5,49.0,30.21,ESE,105,5.0,8.0,50,0.00,,,0.00,weatherlink.com 1.10,2013-10-08 18:52:00,
2013-10-08 15:07:00,68.3,49.0,30.21,SSE,156,3.0,8.0,50,0.00,,,0.00,weatherlink.com 1.10,2013-10-08 19:07:00,
2013-10-08 15:22:00,68.8,49.0,30.21,SSE,156,3.0,10.0,49,0.00,,,0.00,weatherlink.com 1.10,2013-10-08 19:22:00,
2013-10-08 15:37:00,69.0,49.0,30.21,WSW,238,4.0,7.0,49,0.00,,,0.00,weatherlink.com 1.10,2013-10-08 19:37:00,
2013-10-08 15:52:00,68.7,48.0,30.21,SE,134,0.0,10.0,48,0.00,,,0.00,weatherlink.com 1.10,2013-10-08 19:52:00,
2013-10-08 16:07:00,68.6,48.0,30.21,SE,146,6.0,12.0,48,0.00,,,0.00,weatherlink.com 1.10,2013-10-08 20:07:00,
2013-10-08 16:22:00,68.8,47.0,30.21,NE,38,1.0,8.0,46,0.00,,,0.00,weatherlink.com 1.10,2013-10-08 20:22:00,
2013-10-08 16:37:00,68.8,47.0,30.21,SSE,163,7.0,8.0,46,0.00,,,0.00,weatherlink.com 1.10,2013-10-08 20:37:00,
2013-10-08 16:52:00,68.6,47.0,30.21,SSE,166,3.0,7.0,47,0.00,,,0.00,weatherlink.com 1.10,2013-10-08 20:52:00,
2013-10-08 17:07:00,68.9,47.0,30.21,SE,144,3.0,8.0,46,0.00,,,0.00,weatherlink.com 1.10,2013-10-08 21:07:00,
2013-10-08 17:22:00,69.0,48.0,30.20,SE,138,0.0,11.0,47,0.00,,,0.00,weatherlink.com 1.10,2013-10-08 21:22:00,
2013-10-08 17:37:00,67.9,48.0,30.21,SW,217,1.0,7.0,49,0.00,,,0.00,weatherlink.com 1.10,2013-10-08 21:37:00,
2013-10-08 17:52:00,67.1,47.0,30.21,South,188,3.0,8.0,49,0.00,,,0.00,weatherlink.com 1.10,2013-10-08 21:52:00,
2013-10-08 18:07:00,66.6,47.0,30.21,SW,232,4.0,7.0,50,0.00,,,0.00,weatherlink.com 1.10,2013-10-08 22:07:00,
2013-10-08 18:22:00,66.5,48.0,30.21,South,170,0.0,4.0,51,0.00,,,0.00,weatherlink.com 1.10,2013-10-08 22:22:00,
2013-10-08 18:37:00,65.1,47.0,30.21,SE,142,1.0,4.0,53,0.00,,,0.00,weatherlink.com 1.10,2013-10-08 22:37:00,
2013-10-08 18:53:00,63.3,48.0,30.21,SE,135,1.0,2.0,57,0.00,,,0.00,weatherlink.com 1.10,2013-10-08 22:53:00,
2013-10-08 19:08:00,61.7,47.0,30.21,ESE,113,0.0,3.0,60,0.00,,,0.00,weatherlink.com 1.10,2013-10-08 23:08:00,
2013-10-08 19:23:00,60.5,47.0,30.21,SE,136,0.0,1.0,61,0.00,,,0.00,weatherlink.com 1.10,2013-10-08 23:23:00,
2013-10-08 19:38:00,59.1,47.0,30.22,SE,133,0.0,1.0,64,0.00,,,0.00,weatherlink.com 1.10,2013-10-08 23:38:00,
2013-10-08 19:53:00,58.5,47.0,30.23,SE,141,0.0,1.0,65,0.00,,,0.00,weatherlink.com 1.10,2013-10-08 23:53:00,
2013-10-08 20:08:00,57.9,47.0,30.23,SE,129,0.0,2.0,66,0.00,,,0.00,weatherlink.com 1.10,2013-10-09 00:08:00,
2013-10-08 20:23:00,57.5,46.0,30.23,SSE,162,1.0,4.0,66,0.00,,,0.00,weatherlink.com 1.10,2013-10-09 00:23:00,
2013-10-08 20:38:00,57.4,46.0,30.23,SE,141,0.0,4.0,65,0.00,,,0.00,weatherlink.com 1.10,2013-10-09 00:38:00,
2013-10-08 20:53:00,56.8,45.0,30.23,SSW,205,2.0,4.0,65,0.00,,,0.00,weatherlink.com 1.10,2013-10-09 00:53:00,
2013-10-08 21:08:00,56.2,45.0,30.23,SSE,147,0.0,3.0,66,0.00,,,0.00,weatherlink.com 1.10,2013-10-09 01:08:00,
2013-10-08 21:23:00,55.1,44.0,30.24,SSE,148,0.0,1.0,67,0.00,,,0.00,weatherlink.com 1.10,2013-10-09 01:23:00,
2013-10-08 21:38:00,54.3,44.0,30.24,SSW,211,0.0,1.0,69,0.00,,,0.00,weatherlink.com 1.10,2013-10-09 01:38:00,
2013-10-08 21:53:00,53.0,44.0,30.24,SE,138,0.0,1.0,71,0.00,,,0.00,weatherlink.com 1.10,2013-10-09 01:53:00,
2013-10-08 22:08:00,52.6,43.0,30.25,ESE,104,0.0,2.0,71,0.00,,,0.00,weatherlink.com 1.10,2013-10-09 02:08:00,
2013-10-08 22:23:00,52.0,43.0,30.25,SE,134,0.0,2.0,71,0.00,,,0.00,weatherlink.com 1.10,2013-10-09 02:23:00,
2013-10-08 22:38:00,52.2,43.0,30.25,SSE,148,0.0,4.0,70,0.00,,,0.00,weatherlink.com 1.10,2013-10-09 02:38:00,
2013-10-08 22:53:00,52.1,42.0,30.25,SE,129,0.0,4.0,69,0.00,,,0.00,weatherlink.com 1.10,2013-10-09 02:53:00,
2013-10-08 23:08:00,51.8,42.0,30.25,SE,131,0.0,3.0,70,0.00,,,0.00,weatherlink.com 1.10,2013-10-09 03:08:00,
2013-10-08 23:23:00,51.2,42.0,30.25,SE,138,0.0,2.0,72,0.00,,,0.00,weatherlink.com 1.10,2013-10-09 03:23:00,
2013-10-08 23:38:00,50.6,43.0,30.25,SE,140,0.0,1.0,74,0.00,,,0.00,weatherlink.com 1.10,2013-10-09 03:38:00,
2013-10-08 23:53:00,50.1,43.0,30.25,SSE,162,0.0,2.0,77,0.00,,,0.00,weatherlink.com 1.10,2013-10-09 03:53:00,